(44938) = 1982 PE1 = 1998 HU68 = 1999 VV50

Discovered at Socorro on 1999-11-03 by LINEAR.

Orbit

Orbit type: Main Belt

Note: WebGL enabled browser required.

epoch2024-03-31.0
epoch JD2460400.5
perihelion date2022-07-29.94314
perihelion JD2459790.44314
argument of perihelion (°)70.21023
ascending node (°)266.61218
inclination (°)2.65645
eccentricity0.1718677
perihelion distance (AU)1.8439934
Tisserand w.r.t. Jupiter3.6
ΔV w.r.t. Earth (km/sec)8.4
semimajor axis (AU)2.2266895
mean anomaly (°)180.96087
mean daily motion (°/day)0.29662950
aphelion distance (AU)2.609
period (years)3.32
P-vector [x]0.91827993
P-vector [y]-0.37839711
P-vector [z]-0.11652291
Q-vector [x]0.39321927
Q-vector [y]0.83720934
Q-vector [z]0.38007778
absolute magnitude15.24
phase slope0.15
uncertainty0
referenceMPEC 2024-F28
observations used2146
oppositions20
arc length (days)10993
first opposition used1994
last opposition used2024
residual rms (arc-secs)0.62
perturbers coarse indicatorM-v
perturbers precise indicator003Ek
first observation date used1994-02-11.0
last observation date used2024-03-18.0
computer nameMPCLINUX
JD of orbit computation2456789.341062
perihelion JD uncertainty (days)3.1122E-05
argument of perihelion uncertainty (°)8.7798E-05
ascending node uncertainty (°)8.7368E-05
inclination uncertainty (°)3.0170E-06
eccentricity uncertainty 4.0636E-08
perihelion distance uncertainty (AU)9.1157E-08
Minimum Orbit Intersection Distances (in AU)
for orbit epoch: 2460400.5, reference: E2024-F28
Mercury1.44671
Venus1.12242
Earth0.83639
Mars0.47747
Jupiter2.74801
Saturn6.59166
Uranus15.8378
Neptune27.6599

Observations

2175 total observations over interval: 1982 08 15.89584 – 2024 03 18.131465
These data are available for download (format description).

Date (UT) J2000 RA J2000 Dec Magn Location Ref
1982 08 15.89584 22 05 21.58 -06 23 17.0 16.8   095 – Crimea-Nauchnyi MPC 13499
1994 02 11.28024 09 22 57.71 +11 43 16.8 18.4 V 691 – Steward Observatory, Kitt Peak-Spacewatch MPS 81197
1994 02 11.30225 09 22 56.25 +11 43 22.8 18.4 V 691 – Steward Observatory, Kitt Peak-Spacewatch MPS 81197
1994 02 11.33110 09 22 54.35 +11 43 31.0 18.9 V 691 – Steward Observatory, Kitt Peak-Spacewatch MPS 81197
1994 02 16.19515 09 17 46.09 +12 05 48.9 18.7 V 691 – Steward Observatory, Kitt Peak-Spacewatch MPS 81197
1994 02 16.22799 09 17 43.97 +12 05 58.0 18.4 V 691 – Steward Observatory, Kitt Peak-Spacewatch MPS 81197
1994 02 16.26075 09 17 41.85 +12 06 07.2 19.4 V 691 – Steward Observatory, Kitt Peak-Spacewatch MPS 81197
1994 03 06.11766 09 01 46.75 +13 18 59.6 18.7 V 691 – Steward Observatory, Kitt Peak-Spacewatch MPS 81197
1994 03 06.13639 09 01 45.93 +13 19 03.5 18.8 V 691 – Steward Observatory, Kitt Peak-Spacewatch MPS 81197
1994 03 06.15594 09 01 45.05 +13 19 07.6 19.7 V 691 – Steward Observatory, Kitt Peak-Spacewatch MPS 81197
1998 04 21.20818 13 48 59.90 -15 16 50.2 18.6   704 – Lincoln Laboratory ETS, New Mexico MPS 1339
1998 04 21.22827 13 48 58.64 -15 16 42.1 18.2   704 – Lincoln Laboratory ETS, New Mexico MPS 1339
1998 04 21.24829 13 48 57.35 -15 16 33.9 18.0   704 – Lincoln Laboratory ETS, New Mexico MPS 1339
1998 04 21.26832 13 48 56.12 -15 16 27.1 17.7   704 – Lincoln Laboratory ETS, New Mexico MPS 1339
1998 04 21.28843 13 48 54.78 -15 16 18.5 18.1   704 – Lincoln Laboratory ETS, New Mexico MPS 1339
1998 04 22.25023 13 47 55.03 -15 10 18.0 18.2   704 – Lincoln Laboratory ETS, New Mexico MPS 1339
1998 04 22.26909 13 47 53.92 -15 10 10.7 18.2   704 – Lincoln Laboratory ETS, New Mexico MPS 1339
1998 04 22.28798 13 47 52.69 -15 10 02.6 18.0   704 – Lincoln Laboratory ETS, New Mexico MPS 1339
1998 04 22.30677 13 47 51.48 -15 09 56.1   704 – Lincoln Laboratory ETS, New Mexico MPS 1339
1998 04 22.32592 13 47 50.25 -15 09 48.5 17.7   704 – Lincoln Laboratory ETS, New Mexico MPS 1339
1998 04 24.26531 13 45 50.11 -14 57 27.0 18.2 V 691 – Steward Observatory, Kitt Peak-Spacewatch MPS 16618
1998 04 24.28713 13 45 48.69 -14 57 19.1 17.9 V 691 – Steward Observatory, Kitt Peak-Spacewatch MPS 16618
1998 04 24.30905 13 45 47.29 -14 57 10.3 17.9 V 691 – Steward Observatory, Kitt Peak-Spacewatch MPS 16618
1998 04 25.29787 13 44 46.23 -14 50 47.7 18.2 R 699 – Lowell Observatory-LONEOS MPS 8701
1998 04 25.30780 13 44 45.63 -14 50 43.7   699 – Lowell Observatory-LONEOS MPS 8701
1998 04 25.31772 13 44 45.01 -14 50 39.2   699 – Lowell Observatory-LONEOS MPS 8701
1999 10 22.29986 04 13 34.47 +24 07 16.7 17.4   704 – Lincoln Laboratory ETS, New Mexico MPS 12066
1999 10 22.31288 04 13 33.99 +24 07 15.6 18.0   704 – Lincoln Laboratory ETS, New Mexico MPS 12066
1999 10 22.32744 04 13 33.47 +24 07 13.8 18.0   704 – Lincoln Laboratory ETS, New Mexico MPS 12066
1999 10 22.34015 04 13 33.00 +24 07 11.8 19.0   704 – Lincoln Laboratory ETS, New Mexico MPS 12066
1999 10 22.35287 04 13 32.65 +24 07 10.8 18.9   704 – Lincoln Laboratory ETS, New Mexico MPS 12066
1999 11 03.32262 04 04 18.75 +23 35 02.9 17.7   704 – Lincoln Laboratory ETS, New Mexico MPS 7490
1999 11 03.33874 04 04 17.78 +23 34 59.9 17.7   704 – Lincoln Laboratory ETS, New Mexico MPS 7490
1999 11 03.35485 04 04 16.82 +23 34 56.4 18.1   704 – Lincoln Laboratory ETS, New Mexico MPS 7490
1999 11 03.37091 04 04 15.84 +23 34 53.5 17.9   704 – Lincoln Laboratory ETS, New Mexico MPS 7490
1999 11 03.38699 04 04 14.84 +23 34 49.5 17.9   704 – Lincoln Laboratory ETS, New Mexico MPS 7490
1999 11 04.31825 04 03 20.94 +23 31 29.2 18.0   704 – Lincoln Laboratory ETS, New Mexico MPS 7490
1999 11 04.33435 04 03 19.93 +23 31 24.9 18.5   704 – Lincoln Laboratory ETS, New Mexico MPS 7490
1999 11 04.35049 04 03 18.97 +23 31 21.8 18.3   704 – Lincoln Laboratory ETS, New Mexico MPS 7490
1999 11 04.36661 04 03 18.06 +23 31 17.4 19.4   704 – Lincoln Laboratory ETS, New Mexico MPS 7490
1999 11 05.25825 04 02 25.17 +23 28 00.8 17.5 R 699 – Lowell Observatory-LONEOS MPS 12066
1999 11 05.28630 04 02 23.44 +23 27 54.3   699 – Lowell Observatory-LONEOS MPS 12066
1999 11 05.31432 04 02 21.61 +23 27 47.4   699 – Lowell Observatory-LONEOS MPS 12066
1999 11 14.35442 03 52 32.99 +22 48 42.2 17.7   704 – Lincoln Laboratory ETS, New Mexico MPS 8701
1999 11 14.36892 03 52 31.97 +22 48 37.8 17.8   704 – Lincoln Laboratory ETS, New Mexico MPS 8701
1999 11 14.38353 03 52 30.93 +22 48 33.4 17.4   704 – Lincoln Laboratory ETS, New Mexico MPS 8701
1999 11 14.39784 03 52 29.90 +22 48 28.9 17.7   704 – Lincoln Laboratory ETS, New Mexico MPS 8701
1999 11 14.41229 03 52 28.90 +22 48 24.6 17.8   704 – Lincoln Laboratory ETS, New Mexico MPS 8701
1999 11 15.28583 03 51 29.23 +22 44 11.4 17.0   704 – Lincoln Laboratory ETS, New Mexico MPS 8701
1999 11 15.32931 03 51 26.12 +22 43 59.1 17.4   704 – Lincoln Laboratory ETS, New Mexico MPS 8701
1999 11 15.34362 03 51 25.11 +22 43 54.6 17.4   704 – Lincoln Laboratory ETS, New Mexico MPS 8701
1999 11 16.23702 03 50 23.82 +22 39 30.0 17.5   704 – Lincoln Laboratory ETS, New Mexico MPS 8701
1999 11 16.25127 03 50 22.79 +22 39 25.9 17.6   704 – Lincoln Laboratory ETS, New Mexico MPS 8701
1999 11 16.26550 03 50 21.78 +22 39 21.4 17.1   704 – Lincoln Laboratory ETS, New Mexico MPS 8701
1999 11 16.27977 03 50 20.72 +22 39 17.0 17.2   704 – Lincoln Laboratory ETS, New Mexico MPS 8701
1999 11 19.17980 03 47 00.45 +22 24 33.7 17.1 R 699 – Lowell Observatory-LONEOS MPS 12066
1999 11 19.21036 03 46 58.26 +22 24 24.9   699 – Lowell Observatory-LONEOS MPS 12066
1999 11 19.24090 03 46 56.05 +22 24 14.6   699 – Lowell Observatory-LONEOS MPS 12066
1999 12 02.23220 03 32 47.51 +21 14 45.3 17.5 R 699 – Lowell Observatory-LONEOS MPS 8701
1999 12 02.26273 03 32 45.67 +21 14 35.7   699 – Lowell Observatory-LONEOS MPS 8701
1999 12 02.29330 03 32 43.76 +21 14 26.0   699 – Lowell Observatory-LONEOS MPS 8701
1999 12 03.28759 03 31 46.02 +21 09 10.3 17.8 V 691 – Steward Observatory, Kitt Peak-Spacewatch MPS 8701
1999 12 03.31001 03 31 44.67 +21 09 03.1 18.0 V 691 – Steward Observatory, Kitt Peak-Spacewatch MPS 8701
1999 12 03.33242 03 31 43.33 +21 08 55.9 17.7 V 691 – Steward Observatory, Kitt Peak-Spacewatch MPS 8701
1999 12 05.18627 03 30 00.11 +20 59 17.6 17.6 R 703 – Catalina Sky Survey MPS 8701
1999 12 05.19858 03 29 59.39 +20 59 13.7 17.6 R 703 – Catalina Sky Survey MPS 8701
1999 12 05.21093 03 29 58.57 +20 59 08.0 16.9 R 703 – Catalina Sky Survey MPS 8701
1999 12 05.22328 03 29 58.19 +20 59 06.1 16.8 R 703 – Catalina Sky Survey MPS 8701
1999 12 07.22055 03 28 12.57 +20 48 55.9 17.8   704 – Lincoln Laboratory ETS, New Mexico MPS 7885
1999 12 07.23513 03 28 11.78 +20 48 51.5 18.2   704 – Lincoln Laboratory ETS, New Mexico MPS 7885
1999 12 07.24967 03 28 10.95 +20 48 47.7 18.6   704 – Lincoln Laboratory ETS, New Mexico MPS 7885
1999 12 07.26425 03 28 10.19 +20 48 43.0 18.5   704 – Lincoln Laboratory ETS, New Mexico MPS 7885
1999 12 07.27880 03 28 09.38 +20 48 38.8 18.2   704 – Lincoln Laboratory ETS, New Mexico MPS 7885
1999 12 08.26119 03 27 20.25 +20 43 46.3 18.3   704 – Lincoln Laboratory ETS, New Mexico MPS 7885
1999 12 08.27361 03 27 19.61 +20 43 42.2 18.7   704 – Lincoln Laboratory ETS, New Mexico MPS 7885
1999 12 08.28603 03 27 18.95 +20 43 39.0 18.3   704 – Lincoln Laboratory ETS, New Mexico MPS 7885
1999 12 08.29838 03 27 18.27 +20 43 35.6 18.4   704 – Lincoln Laboratory ETS, New Mexico MPS 7885
1999 12 08.31077 03 27 17.64 +20 43 31.4 18.9   704 – Lincoln Laboratory ETS, New Mexico MPS 7885
1999 12 13.22881 03 23 39.03 +20 20 31.0 17.7 R 703 – Catalina Sky Survey MPS 7885
1999 12 13.24100 03 23 38.47 +20 20 27.7 17.7 R 703 – Catalina Sky Survey MPS 7885
1999 12 13.25320 03 23 37.96 +20 20 24.2 17.9 R 703 – Catalina Sky Survey MPS 7885
1999 12 13.26535 03 23 37.46 +20 20 20.9 17.7 R 703 – Catalina Sky Survey MPS 7885
2000 01 30.08688 03 30 28.59 +19 25 51.0 19.0   704 – Lincoln Laboratory ETS, New Mexico MPS 9966
2000 01 30.10168 03 30 29.16 +19 25 50.2 19.3   704 – Lincoln Laboratory ETS, New Mexico MPS 9966
2000 01 30.11643 03 30 30.01 +19 25 51.6 19.4   704 – Lincoln Laboratory ETS, New Mexico MPS 9966
